Change the Weather History Date:

Thursday, July 11, 2013

  Actual Average Record
Temperature  
Mean Temperature 82 °F -  
Max Temperature 89 °F 89 °F 93 °F (2007)
Min Temperature 77 °F 79 °F 73 °F (1966)
Cooling Degree Days 18    
Growing Degree Days 32 (Base 50)    
Moisture  
Dew Point 73 °F    
Average Humidity 74    
Maximum Humidity 90    
Minimum Humidity 58    
Precipitation  
Precipitation 0.00 in - - ()
Sea Level Pressure  
Sea Level Pressure 29.99 in    
Wind  
Wind Speed 5 mph (SE)    
Max Wind Speed 17 mph    
Max Gust Speed 24 mph    
Visibility 10 miles    
Events Thunderstorm    
Averages and records for this station are not official NWS values.
T = Trace of Precipitation, MM = Missing Value Source: NWS Daily Summary

Daily Weather History Graph

Daily Weather History Graph

Search for Another Location

Airport or City:

Trip Planner

Search our weather history database for the weather conditions in past years. The results will help you decide how hot, cold, wet, or windy it might be!

Date:

Astronomy

Jul. 11, 2013 Rise Set
Actual Time 6:45 AM EDT 8:18 PM EDT
Civil Twilight 6:20 AM EDT 8:44 PM EDT
Nautical Twilight 5:49 AM EDT 9:14 PM EDT
Astronomical Twilight 5:18 AM EDT 9:46 PM EDT
Moon 9:38 AM EDT (7/11) 10:26 PM EDT (7/11)
Length of Visible Light 14h 23m
Length of Day
13h 33m
Waxing Crescent, 10% of the Moon is Illuminated
Jul 11
Waxing Crescent
Jul 15
First Quarter
Jul 22
Full
Jul 29
Last Quarter
Aug 6
New

Hourly Weather History & Observations

Time (EDT) Temp. Heat Index Dew Point Humidity Pressure Visibility Wind Dir Wind Speed Gust Speed Precip Events Conditions
12:53 AM 81.0 °F 86.2 °F 73.9 °F 79% 30.04 in 10.0 mi SE 6.9 mph - N/A   Mostly Cloudy
1:05 AM 80.6 °F 85.4 °F 73.4 °F 79% 30.04 in 10.0 mi SSE 4.6 mph - N/A Thunderstorm Thunderstorm
1:37 AM 78.8 °F - 73.4 °F 83% 30.03 in 10.0 mi West 5.8 mph - N/A   Mostly Cloudy
1:53 AM 77.0 °F - 72.0 °F 84% 30.02 in 10.0 mi West 3.5 mph - N/A   Mostly Cloudy
2:53 AM 78.1 °F - 75.0 °F 90% 30.01 in 10.0 mi Calm Calm - N/A   Clear
3:53 AM - - - N/A% 30.00 in 10.0 mi Calm Calm - N/A   Clear
4:53 AM 78.1 °F - 75.0 °F 90% 29.99 in 10.0 mi SE 3.5 mph - N/A   Clear
5:53 AM 78.1 °F - 73.9 °F 87% 29.99 in 10.0 mi ESE 4.6 mph - N/A   Clear
6:01 AM 78.8 °F - 73.4 °F 83% 30.00 in 10.0 mi ESE 3.5 mph - N/A   Scattered Clouds
6:53 AM 79.0 °F - 75.0 °F 88% 30.00 in 10.0 mi ESE 4.6 mph - N/A   Mostly Cloudy
7:53 AM 82.0 °F 88.6 °F 75.0 °F 79% 30.00 in 10.0 mi ESE 5.8 mph - N/A   Scattered Clouds
8:53 AM 84.0 °F 91.9 °F 75.0 °F 74% 30.01 in 10.0 mi SE 4.6 mph - N/A   Scattered Clouds
9:53 AM 84.9 °F 93.3 °F 75.0 °F 72% 30.00 in 10.0 mi ESE 6.9 mph - N/A   Scattered Clouds
10:53 AM 84.9 °F 94.1 °F 75.9 °F 74% 30.01 in 10.0 mi SSE 8.1 mph - N/A   Scattered Clouds
11:53 AM 86.0 °F 96.0 °F 75.9 °F 72% 30.01 in 10.0 mi ESE 6.9 mph - N/A   Scattered Clouds
12:53 PM 86.0 °F 96.0 °F 75.9 °F 72% 30.01 in 10.0 mi Variable 3.5 mph - N/A   Scattered Clouds
1:53 PM 88.0 °F 98.5 °F 75.9 °F 67% 30.00 in 10.0 mi SSE 5.8 mph - N/A   Scattered Clouds
2:53 PM 88.0 °F 94.7 °F 72.0 °F 59% 29.98 in 10.0 mi SE 5.8 mph - N/A   Scattered Clouds
3:53 PM 88.0 °F 95.6 °F 73.0 °F 61% 29.96 in 10.0 mi SE 6.9 mph - N/A   Scattered Clouds
4:53 PM 88.0 °F 94.7 °F 72.0 °F 59% 29.94 in 10.0 mi SSE 4.6 mph - N/A   Scattered Clouds
5:53 PM 84.9 °F 91.4 °F 73.0 °F 67% 29.95 in 10.0 mi South 3.5 mph - N/A   Scattered Clouds
6:41 PM 84.2 °F 90.9 °F 73.4 °F 70% 29.97 in 10.0 mi Variable 3.5 mph - N/A Thunderstorm Thunderstorm
6:53 PM 82.9 °F 88.0 °F 72.0 °F 69% 29.98 in 10.0 mi ENE 15.0 mph 21.9 mph N/A Thunderstorm Thunderstorm
6:58 PM 80.6 °F 83.9 °F 69.8 °F 70% 29.98 in 10.0 mi NNE 17.3 mph 24.2 mph N/A Thunderstorm Thunderstorm
7:45 PM 80.6 °F 82.7 °F 66.2 °F 61% 29.98 in 10.0 mi NNE 3.5 mph - N/A   Mostly Cloudy
7:53 PM 82.0 °F 84.1 °F 66.0 °F 58% 29.97 in 10.0 mi North 4.6 mph - N/A   Mostly Cloudy
8:53 PM 82.0 °F 86.3 °F 71.1 °F 69% 29.97 in 10.0 mi Calm Calm - N/A   Mostly Cloudy
10:53 PM 82.0 °F 88.6 °F 75.0 °F 79% 29.99 in 10.0 mi SE 5.8 mph - N/A   Scattered Clouds
11:53 PM 82.9 °F 90.2 °F 75.0 °F 77% 29.99 in 10.0 mi SE 8.1 mph - N/A   Partly Cloudy